Regional Weather Roundup
Issued by NWS Green Bay, WI

Home | Current Version | Previous Version | Graphics & Text | Print | Product List | Glossary Off
Versions: 1 2 3 4 5 6 7 8 9 10 11 12 13 14 15 16 17 18 19 20 21 22 23 24 25 26 27 28 29 30 31 32 33 34 35 36 37 38 39 40 41 42 43 44 45 46 47 48 49 50

000
ASUS43 KGRB 231100
RWRGRB

NORTH-CENTRAL AND NORTHEAST WISCONSIN REGIONAL WEATHER ROUNDUP
NATIONAL WEATHER SERVICE GREEN BAY WI
500 AM CST THU NOV 23 2017

WIZ005-009-010>012-018-019-231200-
NORTH CENTRAL WISCONSIN

CITY           SKY/WX    TMP DP  RH WIND       PRES   REMARKS
IRONWOOD       CLOUDY    24  18  77 SW6       29.89F
MANITOWISH WTR NOT AVBL
ARBOR VITAE    NOT AVBL
EAGLE RIVER    CLOUDY    24  19  80 SW6       29.88F
LAND O LAKES   NOT AVBL
RHINELANDER    CLOUDY    25  21  85 SW6       29.90F
PHILLIPS       CLOUDY    25  20  83 SW3       29.90S
ANTIGO         NOT AVBL
TOMAHAWK       NOT AVBL
MERRILL        PTCLDY    20  19  96 CALM      29.93S
$$

WIZ013-073-231200-
NORTHEAST WISCONSIN

CITY           SKY/WX    TMP DP  RH WIND       PRES   REMARKS
IRON MOUNTAIN  CLOUDY    27  18  69 SW3       29.90F
MARINETTE      CLOUDY    29  22  75 SW6       29.97F
$$

WIZ017-030-035>037-045-231200-
CENTRAL WISCONSIN

CITY           SKY/WX    TMP DP  RH WIND       PRES   REMARKS
MEDFORD        NOT AVBL
WAUSAU         CLOUDY    24  19  81 SE3       29.93S
MOSINEE        NOT AVBL
MARSHFIELD     CLOUDY    24  15  68 CALM      29.91F
WISC RAPIDS    CLOUDY    26  17  68 S3        29.95F
STEVENS POINT  NOT AVBL
WAUPACA        NOT AVBL
SHAWANO        CLOUDY    29  23  77 CALM      29.96F
CLINTONVILLE   NOT AVBL
WAUTOMA        CLOUDY    29  20  69 S5        29.96F
$$

WIZ038-039-048-051-231200-
FOX VALLEY

CITY           SKY/WX    TMP DP  RH WIND       PRES   REMARKS
NWS GREEN BAY  CLOUDY    31  23  72 SW5       29.98F
APPLETON       NOT AVBL
OSHKOSH        CLOUDY    29  21  72 S7        29.97F
FOND DU LAC    CLOUDY    32  19  58 SW9       29.98S
$$

WIZ022-050-052-231200-
EAST CENTRAL WISCONSIN

CITY           SKY/WX    TMP DP  RH WIND       PRES   REMARKS
EPHRAIM        NOT AVBL
WASHINGTON ISL NOT AVBL
STURGEON BAY   CLOUDY    29  24  82 S6        29.98F
MANITOWOC      CLOUDY    31  22  69 S5        30.00
SHEBOYGAN      CLOUDY    31  21  66 S6        29.99F
$$

LMZ563-521-522-541>543-231200-
LAKESHORE

STATION/POSITION TIME  TEMP    WIND        PRES    VSBY  WAVE
                       AIR SEA DIR/SP/G                  HT/PER
                 (UTC) (F)     (DEG/KT/KT) (MB)    (MI)  (FT/S)
SHEBOYGAN LKSHOR 1000   32     210/  7/  9 1016.6F
KEWAUNEE LKSHORE 1030   30     230/  3/  5 1015.0F
NORTHPORT PIER   1040   31     220/  3/ 11 1014.6F
N MID LAKE BUOY  0950   33 47  240/ 16/ 19 1015.9F         4/ 6
MENOMINEE LKSHOR 1030   29     210/  7/  8 1014.7F
$$




USA.gov is the U.S. government's official web portal to all federal, state and local government web resources and services.